Showing default

RADIATION SAT (5E 1), 671

Orbit data source: Space-Track

RADIATION SAT (5E 1), 671 is a payload satellite owned by USN BuWeps (US) in LEO that was launched on Sat, 28 Sep 1963 UTC via a THOR ABLESTAR launch vehicle from the Air Force Western Test Range (AFWTR). Payload-class satellites include a variety of spacecraft equipped with specific instruments for various scientific and technological missions. These include communications satellites like Starlink; space stations such as the ISS; scientific satellites like the Hubble; Earth observation satellites from companies like Planet Labs, Umbra, and HawkEye 360; GPS; miniature CubeSats for education and research; and military/defense satellites.

Loading next visibility...
Identifier
671, 1963-038C
Orbit
LEO
Country
Flag of USUS
Related business
Manufacturer
APL
Mission
Civil Science
Bus & Motor
TRANSIT 5, Unknown motor
Mass
59 kg wet, 59 kg dry
Launch date (UTC)
1963-09-28 (62 years ago)
Launch vehicle
THOR ABLESTAR
Launch site
Air Force Western Test Range (AFWTR)
Object type
Payload
Rocket body
Debris
Shape & HBR
Oct Cyl + 4 Pan, 1.5 m
Radar Cross Section
0.854 m², Large (>1 m²)

Expand to show TLE details & history
Last TLE update: 10 hours ago

TLE from 10 hours ago
0 RADIATION SAT (5E 1)
1 00671U 63038C   25258.59734983  .00000057  00000-0  79390-4 0  9998
2 00671  89.9799 333.8522 0041790  59.1655 301.3594 13.45172458 38135
Epoch: 2025-09-15T14:20Z
TLE epoch observation values (Epoch: 2025-09-15T14:20:11.025Z)
Latitude
-0.00008°
Longitude
124.00654°
Altitude
1,076.87 km
Speed
7.322 km/s
True Right ascension
22h 15m 24s
True Declination
0° 00' 00"
Sunlit
Object was in full shadow at epoch
Visualization orbit readout
Latitude
Unknown
Longitude
Unknown
Altitude
Unknown
Speed
Unknown
Apparent Right ascension
Unknown
Apparent Declination
Unknown
Sunlit
N/A
Visualization observer readout
Local Sidereal Time
17:14:18
Azimuth
Unknown
Elevation
Unknown
Doppler factor
Unknown
Orbital elements
Apogee altitude
1,118.327 km
Perigee altitude
1,055.933 km
Semi-major axis
7,465.267 km
Eccentricity
0.00418
Inclination
89.9799°
RAAN
333.8522°
Arg. of periapsis
59.1655°
True anomaly
300.94937°
Mean anomaly
301.3594°
Eccentric anomaly
301.15449°
Mean motion
3.36492 °/min
Orbital period
106.99 mins
BSTAR
0.00007939
Loading maneuver chart data...
Computing Atmospheric mass density...

Documentation

Showing up to 5 results
|